Date_Time,Julian_Date,Latitude,Longitude,Instrument_Depth,U,V,Speed,Direction
(yyyy-mm-dd hh:mn:ss UTC),(JD),(+ deg. North),(+ deg. East),(m),(cm/s),(cm/s),(cm/s),(deg True)
1982-04-27 18:30:00 UTC,2445087.270833,28.7317,-95.2428,0201,4.23,-12.29,13.0000,161.0000
1982-04-27 19:00:00 UTC,2445087.291667,28.7317,-95.2428,0201,5.02,-13.07,14.0000,159.0000
1982-04-27 19:30:00 UTC,2445087.312500,28.7317,-95.2428,0201,5.69,-12.79,14.0000,156.0000
1982-04-27 20:00:00 UTC,2445087.333333,28.7317,-95.2428,0201,5.90,-11.58,13.0000,153.0000
1982-04-27 20:30:00 UTC,2445087.354167,28.7317,-95.2428,0201,7.21,-12.00,14.0000,149.0000
1982-04-27 21:00:00 UTC,2445087.375000,28.7317,-95.2428,0201,8.95,-13.26,16.0000,146.0000
1982-04-27 21:30:00 UTC,2445087.395833,28.7317,-95.2428,0201,9.51,-14.09,17.0000,146.0000
1982-04-27 22:00:00 UTC,2445087.416667,28.7317,-95.2428,0201,9.54,-15.26,18.0000,148.0000
1982-04-27 22:30:00 UTC,2445087.437500,28.7317,-95.2428,0201,8.63,-16.93,19.0000,153.0000
1982-04-27 23:00:00 UTC,2445087.458333,28.7317,-95.2428,0201,5.87,-18.07,19.0000,162.0000
1982-04-27 23:30:00 UTC,2445087.479167,28.7317,-95.2428,0201,2.07,-16.87,17.0000,173.0000
1982-04-28 00:00:00 UTC,2445087.500000,28.7317,-95.2428,0201,-1.48,-16.94,17.0000,185.0000
1982-04-28 00:30:00 UTC,2445087.520833,28.7317,-95.2428,0201,-4.66,-17.39,18.0000,195.0000
1982-04-28 01:00:00 UTC,2445087.541667,28.7317,-95.2428,0201,-8.87,-19.03,21.0000,205.0000
1982-04-28 01:30:00 UTC,2445087.562500,28.7317,-95.2428,0201,-13.25,-21.20,25.0000,212.0000
1982-04-28 02:00:00 UTC,2445087.583333,28.7317,-95.2428,0201,-15.10,-22.38,27.0000,214.0000
1982-04-28 02:30:00 UTC,2445087.604167,28.7317,-95.2428,0201,-14.31,-22.90,27.0000,212.0000
1982-04-28 03:00:00 UTC,2445087.625000,28.7317,-95.2428,0201,-13.91,-23.14,27.0000,211.0000
1982-04-28 03:30:00 UTC,2445087.645833,28.7317,-95.2428,0201,-13.91,-23.14,27.0000,211.0000
1982-04-28 04:00:00 UTC,2445087.666667,28.7317,-95.2428,0201,-12.61,-22.74,26.0000,209.0000
1982-04-28 04:30:00 UTC,2445087.687500,28.7317,-95.2428,0201,-12.26,-24.06,27.0000,207.0000
1982-04-28 05:00:00 UTC,2445087.708333,28.7317,-95.2428,0201,-12.26,-24.06,27.0000,207.0000
1982-04-28 05:30:00 UTC,2445087.729167,28.7317,-95.2428,0201,-12.21,-22.96,26.0000,208.0000
1982-04-28 06:00:00 UTC,2445087.750000,28.7317,-95.2428,0201,-10.80,-20.31,23.0000,208.0000
1982-04-28 06:30:00 UTC,2445087.770833,28.7317,-95.2428,0201,-8.54,-19.18,21.0000,204.0000
1982-04-28 07:00:00 UTC,2445087.791667,28.7317,-95.2428,0201,-5.87,-18.07,19.0000,198.0000
1982-04-28 07:30:00 UTC,2445087.812500,28.7317,-95.2428,0201,-4.96,-17.30,18.0000,196.0000
1982-04-28 08:00:00 UTC,2445087.833333,28.7317,-95.2428,0201,-6.45,-16.80,18.0000,201.0000
1982-04-28 08:30:00 UTC,2445087.854167,28.7317,-95.2428,0201,-7.51,-14.13,16.0000,208.0000
1982-04-28 09:00:00 UTC,2445087.875000,28.7317,-95.2428,0201,-7.83,-11.61,14.0000,214.0000
1982-04-28 09:30:00 UTC,2445087.895833,28.7317,-95.2428,0201,-10.40,-9.37,14.0000,228.0000
1982-04-28 10:00:00 UTC,2445087.916667,28.7317,-95.2428,0201,-13.81,-5.86,15.0000,247.0000
1982-04-28 10:30:00 UTC,2445087.937500,28.7317,-95.2428,0201,-14.27,-4.64,15.0000,252.0000
1982-04-28 11:00:00 UTC,2445087.958333,28.7317,-95.2428,0201,-15.87,-6.09,17.0000,249.0000
1982-04-28 11:30:00 UTC,2445087.979167,28.7317,-95.2428,0201,-17.12,-5.56,18.0000,252.0000
1982-04-28 12:00:00 UTC,2445088.000000,28.7317,-95.2428,0201,-18.35,-4.92,19.0000,255.0000
1982-04-28 12:30:00 UTC,2445088.020833,28.7317,-95.2428,0201,-21.35,-5.32,22.0000,256.0000
1982-04-28 13:00:00 UTC,2445088.041667,28.7317,-95.2428,0201,-24.62,-4.34,25.0000,260.0000
1982-04-28 13:30:00 UTC,2445088.062500,28.7317,-95.2428,0201,-26.85,-2.82,27.0000,264.0000
1982-04-28 14:00:00 UTC,2445088.083333,28.7317,-95.2428,0201,-26.93,-1.88,27.0000,266.0000
1982-04-28 14:30:00 UTC,2445088.104167,28.7317,-95.2428,0201,-24.90,-2.18,25.0000,265.0000
1982-04-28 15:00:00 UTC,2445088.125000,28.7317,-95.2428,0201,-21.88,-2.30,22.0000,264.0000
1982-04-28 15:30:00 UTC,2445088.145833,28.7317,-95.2428,0201,-19.75,-3.13,20.0000,261.0000
1982-04-28 16:00:00 UTC,2445088.166667,28.7317,-95.2428,0201,-18.65,-3.63,19.0000,259.0000
1982-04-28 16:30:00 UTC,2445088.187500,28.7317,-95.2428,0201,-16.56,-3.82,17.0000,257.0000
1982-04-28 17:00:00 UTC,2445088.208333,28.7317,-95.2428,0201,-14.55,-3.63,15.0000,256.0000
1982-04-28 17:30:00 UTC,2445088.229167,28.7317,-95.2428,0201,-12.43,-3.80,13.0000,253.0000
1982-04-28 18:00:00 UTC,2445088.250000,28.7317,-95.2428,0201,-11.20,-4.30,12.0000,249.0000
1982-04-28 18:30:00 UTC,2445088.270833,28.7317,-95.2428,0201,-12.05,-4.87,13.0000,248.0000
1982-04-28 19:00:00 UTC,2445088.291667,28.7317,-95.2428,0201,-15.59,-3.60,16.0000,257.0000
1982-04-28 19:30:00 UTC,2445088.312500,28.7317,-95.2428,0201,-19.92,-1.74,20.0000,265.0000
1982-04-28 20:00:00 UTC,2445088.333333,28.7317,-95.2428,0201,-20.95,-1.46,21.0000,266.0000
1982-04-28 20:30:00 UTC,2445088.354167,28.7317,-95.2428,0201,-16.94,-1.48,17.0000,265.0000
1982-04-28 21:00:00 UTC,2445088.375000,28.7317,-95.2428,0201,-13.86,-1.95,14.0000,262.0000
1982-04-28 21:30:00 UTC,2445088.395833,28.7317,-95.2428,0201,-14.67,-3.12,15.0000,258.0000
1982-04-28 22:00:00 UTC,2445088.416667,28.7317,-95.2428,0201,-15.71,-3.05,16.0000,259.0000
1982-04-28 22:30:00 UTC,2445088.437500,28.7317,-95.2428,0201,-14.67,-3.12,15.0000,258.0000
1982-04-28 23:00:00 UTC,2445088.458333,28.7317,-95.2428,0201,-11.05,-4.69,12.0000,247.0000
1982-04-28 23:30:00 UTC,2445088.479167,28.7317,-95.2428,0201,-10.06,-6.54,12.0000,237.0000
1982-04-29 00:00:00 UTC,2445088.500000,28.7317,-95.2428,0201,-10.38,-7.82,13.0000,233.0000
1982-04-29 00:30:00 UTC,2445088.520833,28.7317,-95.2428,0201,-12.61,-9.85,16.0000,232.0000
1982-04-29 01:00:00 UTC,2445088.541667,28.7317,-95.2428,0201,-15.37,-11.17,19.0000,234.0000
1982-04-29 01:30:00 UTC,2445088.562500,28.7317,-95.2428,0201,-16.38,-11.47,20.0000,235.0000
1982-04-29 02:00:00 UTC,2445088.583333,28.7317,-95.2428,0201,-16.09,-13.50,21.0000,230.0000
1982-04-29 02:30:00 UTC,2445088.604167,28.7317,-95.2428,0201,-14.59,-15.11,21.0000,224.0000
1982-04-29 03:00:00 UTC,2445088.625000,28.7317,-95.2428,0201,-13.50,-16.09,21.0000,220.0000
1982-04-29 03:30:00 UTC,2445088.645833,28.7317,-95.2428,0201,-12.05,-17.20,21.0000,215.0000
1982-04-29 04:00:00 UTC,2445088.666667,28.7317,-95.2428,0201,-10.50,-18.19,21.0000,210.0000
1982-04-29 04:30:00 UTC,2445088.687500,28.7317,-95.2428,0201,-8.77,-17.98,20.0000,206.0000
1982-04-29 05:00:00 UTC,2445088.708333,28.7317,-95.2428,0201,-7.81,-18.41,20.0000,203.0000
1982-04-29 05:30:00 UTC,2445088.729167,28.7317,-95.2428,0201,-7.42,-17.49,19.0000,203.0000
1982-04-29 06:00:00 UTC,2445088.750000,28.7317,-95.2428,0201,-7.18,-15.41,17.0000,205.0000
1982-04-29 06:30:00 UTC,2445088.770833,28.7317,-95.2428,0201,-5.86,-13.81,15.0000,203.0000
1982-04-29 07:00:00 UTC,2445088.791667,28.7317,-95.2428,0201,-4.45,-12.22,13.0000,200.0000
1982-04-29 07:30:00 UTC,2445088.812500,28.7317,-95.2428,0201,-2.49,-11.74,12.0000,192.0000
1982-04-29 08:00:00 UTC,2445088.833333,28.7317,-95.2428,0201,0.63,-11.98,12.0000,177.0000
1982-04-29 08:30:00 UTC,2445088.854167,28.7317,-95.2428,0201,3.91,-11.35,12.0000,161.0000
1982-04-29 09:00:00 UTC,2445088.875000,28.7317,-95.2428,0201,6.71,-9.95,12.0000,146.0000
1982-04-29 09:30:00 UTC,2445088.895833,28.7317,-95.2428,0201,9.18,-10.57,14.0000,139.0000
1982-04-29 10:00:00 UTC,2445088.916667,28.7317,-95.2428,0201,9.90,-9.90,14.0000,135.0000
1982-04-29 10:30:00 UTC,2445088.937500,28.7317,-95.2428,0201,11.33,-8.23,14.0000,126.0000
1982-04-29 11:00:00 UTC,2445088.958333,28.7317,-95.2428,0201,12.12,-7.00,14.0000,120.0000
1982-04-29 11:30:00 UTC,2445088.979167,28.7317,-95.2428,0201,12.86,-7.73,15.0000,121.0000
1982-04-29 12:00:00 UTC,2445089.000000,28.7317,-95.2428,0201,13.57,-8.48,16.0000,122.0000
1982-04-29 12:30:00 UTC,2445089.020833,28.7317,-95.2428,0201,13.71,-8.24,16.0000,121.0000
1982-04-29 13:00:00 UTC,2445089.041667,28.7317,-95.2428,0201,14.57,-8.76,17.0000,121.0000
1982-04-29 13:30:00 UTC,2445089.062500,28.7317,-95.2428,0201,14.09,-9.51,17.0000,124.0000
1982-04-29 14:00:00 UTC,2445089.083333,28.7317,-95.2428,0201,11.31,-11.31,16.0000,135.0000
1982-04-29 14:30:00 UTC,2445089.104167,28.7317,-95.2428,0201,4.79,-13.16,14.0000,160.0000
1982-04-29 15:00:00 UTC,2445089.125000,28.7317,-95.2428,0201,-3.39,-13.58,14.0000,194.0000
1982-04-29 15:30:00 UTC,2445089.145833,28.7317,-95.2428,0201,-9.75,-13.93,17.0000,215.0000
1982-04-29 16:00:00 UTC,2445089.166667,28.7317,-95.2428,0201,-13.44,-13.44,19.0000,225.0000
1982-04-29 16:30:00 UTC,2445089.187500,28.7317,-95.2428,0201,-14.38,-10.83,18.0000,233.0000
1982-04-29 17:00:00 UTC,2445089.208333,28.7317,-95.2428,0201,-14.13,-7.51,16.0000,242.0000
1982-04-29 17:30:00 UTC,2445089.229167,28.7317,-95.2428,0201,-12.05,-4.87,13.0000,248.0000
1982-04-29 18:00:00 UTC,2445089.250000,28.7317,-95.2428,0201,-12.36,-4.02,13.0000,252.0000
1982-04-29 18:30:00 UTC,2445089.270833,28.7317,-95.2428,0201,-12.61,-3.15,13.0000,256.0000
1982-04-29 19:00:00 UTC,2445089.291667,28.7317,-95.2428,0201,-12.87,-1.81,13.0000,262.0000
1982-04-29 19:30:00 UTC,2445089.312500,28.7317,-95.2428,0201,-11.95,-1.05,12.0000,265.0000
1982-04-29 20:00:00 UTC,2445089.333333,28.7317,-95.2428,0201,-12.00,-0.21,12.0000,269.0000
1982-04-29 20:30:00 UTC,2445089.354167,28.7317,-95.2428,0201,-11.97,0.84,12.0000,274.0000
1982-04-29 21:00:00 UTC,2445089.375000,28.7317,-95.2428,0201,-11.85,1.88,12.0000,279.0000
1982-04-29 21:30:00 UTC,2445089.395833,28.7317,-95.2428,0201,-10.67,2.66,11.0000,284.0000
1982-04-29 22:00:00 UTC,2445089.416667,28.7317,-95.2428,0201,-9.27,3.75,10.0000,292.0000
1982-04-29 22:30:00 UTC,2445089.437500,28.7317,-95.2428,0201,-9.33,5.83,11.0000,302.0000
1982-04-29 23:00:00 UTC,2445089.458333,28.7317,-95.2428,0201,-8.30,7.22,11.0000,311.0000
1982-04-29 23:30:00 UTC,2445089.479167,28.7317,-95.2428,0201,-7.64,7.91,11.0000,316.0000
1982-04-30 00:00:00 UTC,2445089.500000,28.7317,-95.2428,0201,-7.22,8.30,11.0000,319.0000
1982-04-30 00:30:00 UTC,2445089.520833,28.7317,-95.2428,0201,-7.22,8.30,11.0000,319.0000
1982-04-30 01:00:00 UTC,2445089.541667,28.7317,-95.2428,0201,-7.31,6.82,10.0000,313.0000
1982-04-30 01:30:00 UTC,2445089.562500,28.7317,-95.2428,0201,-7.09,5.54,9.0000,308.0000
1982-04-30 02:00:00 UTC,2445089.583333,28.7317,-95.2428,0201,-6.63,4.47,8.0000,304.0000
1982-04-30 02:30:00 UTC,2445089.604167,28.7317,-95.2428,0201,-6.93,4.00,8.0000,300.0000
1982-04-30 03:00:00 UTC,2445089.625000,28.7317,-95.2428,0201,-6.44,2.74,7.0000,293.0000
1982-04-30 03:30:00 UTC,2445089.645833,28.7317,-95.2428,0201,-6.85,1.46,7.0000,282.0000
1982-04-30 04:00:00 UTC,2445089.666667,28.7317,-95.2428,0201,-7.97,0.70,8.0000,275.0000
1982-04-30 04:30:00 UTC,2445089.687500,28.7317,-95.2428,0201,-8.00,-0.00,8.0000,270.0000
1982-04-30 05:00:00 UTC,2445089.708333,28.7317,-95.2428,0201,-5.82,-1.45,6.0000,256.0000
1982-04-30 05:30:00 UTC,2445089.729167,28.7317,-95.2428,0201,-4.79,-3.61,6.0000,233.0000
1982-04-30 06:00:00 UTC,2445089.750000,28.7317,-95.2428,0201,-4.50,-5.36,7.0000,220.0000
1982-04-30 06:30:00 UTC,2445089.770833,28.7317,-95.2428,0201,-5.30,-8.48,10.0000,212.0000
1982-04-30 07:00:00 UTC,2445089.791667,28.7317,-95.2428,0201,-8.36,-9.96,13.0000,220.0000
1982-04-30 07:30:00 UTC,2445089.812500,28.7317,-95.2428,0201,-13.42,-8.71,16.0000,237.0000
1982-04-30 08:00:00 UTC,2445089.833333,28.7317,-95.2428,0201,-16.34,-4.69,17.0000,254.0000
1982-04-30 08:30:00 UTC,2445089.854167,28.7317,-95.2428,0201,-20.92,-1.83,21.0000,265.0000
1982-04-30 09:00:00 UTC,2445089.875000,28.7317,-95.2428,0201,-23.94,-1.67,24.0000,266.0000
1982-04-30 09:30:00 UTC,2445089.895833,28.7317,-95.2428,0201,-23.64,-4.17,24.0000,260.0000
1982-04-30 10:00:00 UTC,2445089.916667,28.7317,-95.2428,0201,-23.38,-5.40,24.0000,257.0000
1982-04-30 10:30:00 UTC,2445089.937500,28.7317,-95.2428,0201,-23.56,-4.58,24.0000,259.0000
1982-04-30 11:00:00 UTC,2445089.958333,28.7317,-95.2428,0201,-22.87,-2.40,23.0000,264.0000
1982-04-30 11:30:00 UTC,2445089.979167,28.7317,-95.2428,0201,-22.00,-0.38,22.0000,269.0000
1982-04-30 12:00:00 UTC,2445090.000000,28.7317,-95.2428,0201,-21.00,-0.00,21.0000,270.0000
1982-04-30 12:30:00 UTC,2445090.020833,28.7317,-95.2428,0201,-17.99,0.63,18.0000,272.0000
1982-04-30 13:00:00 UTC,2445090.041667,28.7317,-95.2428,0201,-15.84,2.23,16.0000,278.0000
1982-04-30 13:30:00 UTC,2445090.062500,28.7317,-95.2428,0201,-12.76,2.48,13.0000,281.0000
1982-04-30 14:00:00 UTC,2445090.083333,28.7317,-95.2428,0201,-10.89,1.53,11.0000,278.0000
1982-04-30 14:30:00 UTC,2445090.104167,28.7317,-95.2428,0201,-11.00,-0.00,11.0000,270.0000
1982-04-30 15:00:00 UTC,2445090.125000,28.7317,-95.2428,0201,-11.85,-1.88,12.0000,261.0000
1982-04-30 15:30:00 UTC,2445090.145833,28.7317,-95.2428,0201,-12.67,-2.92,13.0000,257.0000
1982-04-30 16:00:00 UTC,2445090.166667,28.7317,-95.2428,0201,-13.74,-2.67,14.0000,259.0000
1982-04-30 16:30:00 UTC,2445090.187500,28.7317,-95.2428,0201,-13.95,-1.22,14.0000,265.0000
1982-04-30 17:00:00 UTC,2445090.208333,28.7317,-95.2428,0201,-12.98,-0.68,13.0000,267.0000
1982-04-30 17:30:00 UTC,2445090.229167,28.7317,-95.2428,0201,-9.90,-1.39,10.0000,262.0000
1982-04-30 18:00:00 UTC,2445090.250000,28.7317,-95.2428,0201,-7.61,-2.47,8.0000,252.0000
1982-04-30 18:30:00 UTC,2445090.270833,28.7317,-95.2428,0201,-8.09,-3.95,9.0000,244.0000
1982-04-30 19:00:00 UTC,2445090.291667,28.7317,-95.2428,0201,-10.79,-5.26,12.0000,244.0000
1982-04-30 19:30:00 UTC,2445090.312500,28.7317,-95.2428,0201,-12.05,-4.87,13.0000,248.0000
1982-04-30 20:00:00 UTC,2445090.333333,28.7317,-95.2428,0201,-12.36,-4.02,13.0000,252.0000
1982-04-30 20:30:00 UTC,2445090.354167,28.7317,-95.2428,0201,-11.59,-3.11,12.0000,255.0000
1982-04-30 21:00:00 UTC,2445090.375000,28.7317,-95.2428,0201,-9.78,-2.08,10.0000,258.0000
1982-04-30 21:30:00 UTC,2445090.395833,28.7317,-95.2428,0201,-6.95,-0.85,7.0000,263.0000
1982-04-30 22:00:00 UTC,2445090.416667,28.7317,-95.2428,0201,-2.97,0.42,3.0000,278.0000
1982-04-30 22:30:00 UTC,2445090.437500,28.7317,-95.2428,0201,-0.29,0.96,1.0000,343.0000
1982-04-30 23:00:00 UTC,2445090.458333,28.7317,-95.2428,0201,1.88,0.68,2.0000,70.0000
1982-04-30 23:30:00 UTC,2445090.479167,28.7317,-95.2428,0201,3.91,0.83,4.0000,78.0000
1982-05-01 00:00:00 UTC,2445090.500000,28.7317,-95.2428,0201,2.82,-1.03,3.0000,110.0000
1982-05-01 00:30:00 UTC,2445090.520833,28.7317,-95.2428,0201,1.88,-3.53,4.0000,152.0000
1982-05-01 01:00:00 UTC,2445090.541667,28.7317,-95.2428,0201,2.72,-4.19,5.0000,147.0000
1982-05-01 01:30:00 UTC,2445090.562500,28.7317,-95.2428,0201,4.95,-4.95,7.0000,135.0000
1982-05-01 02:00:00 UTC,2445090.583333,28.7317,-95.2428,0201,4.77,-5.12,7.0000,137.0000
1982-05-01 02:30:00 UTC,2445090.604167,28.7317,-95.2428,0201,4.24,-6.78,8.0000,148.0000
1982-05-01 03:00:00 UTC,2445090.625000,28.7317,-95.2428,0201,3.58,-9.34,10.0000,159.0000
1982-05-01 03:30:00 UTC,2445090.645833,28.7317,-95.2428,0201,4.02,-12.36,13.0000,162.0000
1982-05-01 04:00:00 UTC,2445090.666667,28.7317,-95.2428,0201,4.79,-13.16,14.0000,160.0000
1982-05-01 04:30:00 UTC,2445090.687500,28.7317,-95.2428,0201,6.37,-15.76,17.0000,158.0000
1982-05-01 05:00:00 UTC,2445090.708333,28.7317,-95.2428,0201,5.85,-19.13,20.0000,163.0000
1982-05-01 05:30:00 UTC,2445090.729167,28.7317,-95.2428,0201,4.58,-23.56,24.0000,169.0000
1982-05-01 06:00:00 UTC,2445090.750000,28.7317,-95.2428,0201,3.48,-24.76,25.0000,172.0000
1982-05-01 06:30:00 UTC,2445090.770833,28.7317,-95.2428,0201,2.92,-23.82,24.0000,173.0000
1982-05-01 07:00:00 UTC,2445090.791667,28.7317,-95.2428,0201,2.40,-22.87,23.0000,174.0000
1982-05-01 07:30:00 UTC,2445090.812500,28.7317,-95.2428,0201,1.20,-22.97,23.0000,177.0000
1982-05-01 08:00:00 UTC,2445090.833333,28.7317,-95.2428,0201,0.38,-22.00,22.0000,179.0000
1982-05-01 08:30:00 UTC,2445090.854167,28.7317,-95.2428,0201,1.10,-20.97,21.0000,177.0000
1982-05-01 09:00:00 UTC,2445090.875000,28.7317,-95.2428,0201,2.82,-17.78,18.0000,171.0000
1982-05-01 09:30:00 UTC,2445090.895833,28.7317,-95.2428,0201,4.41,-15.38,16.0000,164.0000
1982-05-01 10:00:00 UTC,2445090.916667,28.7317,-95.2428,0201,6.34,-13.59,15.0000,155.0000
1982-05-01 10:30:00 UTC,2445090.937500,28.7317,-95.2428,0201,9.01,-14.42,17.0000,148.0000
1982-05-01 11:00:00 UTC,2445090.958333,28.7317,-95.2428,0201,11.43,-15.17,19.0000,143.0000
1982-05-01 11:30:00 UTC,2445090.979167,28.7317,-95.2428,0201,11.33,-13.99,18.0000,141.0000
1982-05-01 12:00:00 UTC,2445091.000000,28.7317,-95.2428,0201,11.70,-14.97,19.0000,142.0000
1982-05-01 12:30:00 UTC,2445091.020833,28.7317,-95.2428,0201,12.04,-15.97,20.0000,143.0000
1982-05-01 13:00:00 UTC,2445091.041667,28.7317,-95.2428,0201,12.04,-15.97,20.0000,143.0000
1982-05-01 13:30:00 UTC,2445091.062500,28.7317,-95.2428,0201,12.31,-15.76,20.0000,142.0000
1982-05-01 14:00:00 UTC,2445091.083333,28.7317,-95.2428,0201,12.31,-15.76,20.0000,142.0000
1982-05-01 14:30:00 UTC,2445091.104167,28.7317,-95.2428,0201,11.18,-16.58,20.0000,146.0000
1982-05-01 15:00:00 UTC,2445091.125000,28.7317,-95.2428,0201,10.30,-17.14,20.0000,149.0000
1982-05-01 15:30:00 UTC,2445091.145833,28.7317,-95.2428,0201,9.80,-15.10,18.0000,147.0000
1982-05-01 16:00:00 UTC,2445091.166667,28.7317,-95.2428,0201,8.48,-13.57,16.0000,148.0000
1982-05-01 16:30:00 UTC,2445091.187500,28.7317,-95.2428,0201,5.13,-14.10,15.0000,160.0000
1982-05-01 17:00:00 UTC,2445091.208333,28.7317,-95.2428,0201,1.05,-14.96,15.0000,176.0000
1982-05-01 17:30:00 UTC,2445091.229167,28.7317,-95.2428,0201,-1.95,-15.88,16.0000,187.0000
1982-05-01 18:00:00 UTC,2445091.250000,28.7317,-95.2428,0201,-4.87,-12.05,13.0000,202.0000
1982-05-01 18:30:00 UTC,2445091.270833,28.7317,-95.2428,0201,-7.87,-9.06,12.0000,221.0000
1982-05-01 19:00:00 UTC,2445091.291667,28.7317,-95.2428,0201,-7.19,-6.95,10.0000,226.0000
1982-05-01 19:30:00 UTC,2445091.312500,28.7317,-95.2428,0201,-8.34,-8.63,12.0000,224.0000
1982-05-01 20:00:00 UTC,2445091.333333,28.7317,-95.2428,0201,-11.31,-11.31,16.0000,225.0000
1982-05-01 20:30:00 UTC,2445091.354167,28.7317,-95.2428,0201,-13.67,-13.20,19.0000,226.0000
1982-05-01 21:00:00 UTC,2445091.375000,28.7317,-95.2428,0201,-16.09,-13.50,21.0000,230.0000
1982-05-01 21:30:00 UTC,2445091.395833,28.7317,-95.2428,0201,-19.29,-12.53,23.0000,237.0000
1982-05-01 22:00:00 UTC,2445091.416667,28.7317,-95.2428,0201,-21.38,-10.90,24.0000,243.0000
1982-05-01 22:30:00 UTC,2445091.437500,28.7317,-95.2428,0201,-21.01,-9.35,23.0000,246.0000
1982-05-01 23:00:00 UTC,2445091.458333,28.7317,-95.2428,0201,-19.18,-8.54,21.0000,246.0000
1982-05-01 23:30:00 UTC,2445091.479167,28.7317,-95.2428,0201,-17.62,-7.12,19.0000,248.0000
1982-05-02 00:00:00 UTC,2445091.500000,28.7317,-95.2428,0201,-15.76,-6.37,17.0000,248.0000
1982-05-02 00:30:00 UTC,2445091.520833,28.7317,-95.2428,0201,-15.41,-7.18,17.0000,245.0000
1982-05-02 01:00:00 UTC,2445091.541667,28.7317,-95.2428,0201,-16.44,-7.32,18.0000,246.0000
1982-05-02 01:30:00 UTC,2445091.562500,28.7317,-95.2428,0201,-14.62,-6.51,16.0000,246.0000
1982-05-02 02:00:00 UTC,2445091.583333,28.7317,-95.2428,0201,-14.13,-7.51,16.0000,242.0000
1982-05-02 02:30:00 UTC,2445091.604167,28.7317,-95.2428,0201,-14.87,-8.24,17.0000,241.0000
1982-05-02 03:00:00 UTC,2445091.625000,28.7317,-95.2428,0201,-15.01,-7.98,17.0000,242.0000
1982-05-02 03:30:00 UTC,2445091.645833,28.7317,-95.2428,0201,-14.26,-7.26,16.0000,243.0000
1982-05-02 04:00:00 UTC,2445091.666667,28.7317,-95.2428,0201,-13.86,-8.00,16.0000,240.0000
1982-05-02 04:30:00 UTC,2445091.687500,28.7317,-95.2428,0201,-15.93,-10.35,19.0000,237.0000
1982-05-02 05:00:00 UTC,2445091.708333,28.7317,-95.2428,0201,-17.80,-12.93,22.0000,234.0000
1982-05-02 05:30:00 UTC,2445091.729167,28.7317,-95.2428,0201,-17.09,-15.39,23.0000,228.0000
1982-05-02 06:00:00 UTC,2445091.750000,28.7317,-95.2428,0201,-15.98,-16.54,23.0000,224.0000
1982-05-02 06:30:00 UTC,2445091.770833,28.7317,-95.2428,0201,-15.39,-17.09,23.0000,222.0000
1982-05-02 07:00:00 UTC,2445091.791667,28.7317,-95.2428,0201,-15.43,-18.39,24.0000,220.0000
1982-05-02 07:30:00 UTC,2445091.812500,28.7317,-95.2428,0201,-17.24,-22.06,28.0000,218.0000
1982-05-02 08:00:00 UTC,2445091.833333,28.7317,-95.2428,0201,-19.93,-23.75,31.0000,220.0000
1982-05-02 08:30:00 UTC,2445091.854167,28.7317,-95.2428,0201,-21.14,-22.67,31.0000,223.0000
1982-05-02 09:00:00 UTC,2445091.875000,28.7317,-95.2428,0201,-21.21,-21.21,30.0000,225.0000
1982-05-02 09:30:00 UTC,2445091.895833,28.7317,-95.2428,0201,-20.06,-18.07,27.0000,228.0000
1982-05-02 10:00:00 UTC,2445091.916667,28.7317,-95.2428,0201,-18.39,-15.43,24.0000,230.0000
1982-05-02 10:30:00 UTC,2445091.937500,28.7317,-95.2428,0201,-17.10,-13.85,22.0000,231.0000
1982-05-02 11:00:00 UTC,2445091.958333,28.7317,-95.2428,0201,-15.85,-13.78,21.0000,229.0000
1982-05-02 11:30:00 UTC,2445091.979167,28.7317,-95.2428,0201,-15.61,-14.05,21.0000,228.0000
1982-05-02 12:00:00 UTC,2445092.000000,28.7317,-95.2428,0201,-14.86,-13.38,20.0000,228.0000
1982-05-02 12:30:00 UTC,2445092.020833,28.7317,-95.2428,0201,-13.38,-12.04,18.0000,228.0000
1982-05-02 13:00:00 UTC,2445092.041667,28.7317,-95.2428,0201,-12.02,-12.02,17.0000,225.0000
1982-05-02 13:30:00 UTC,2445092.062500,28.7317,-95.2428,0201,-9.84,-11.32,15.0000,221.0000
1982-05-02 14:00:00 UTC,2445092.083333,28.7317,-95.2428,0201,-7.82,-10.38,13.0000,217.0000
1982-05-02 14:30:00 UTC,2445092.104167,28.7317,-95.2428,0201,-5.67,-9.43,11.0000,211.0000
1982-05-02 15:00:00 UTC,2445092.125000,28.7317,-95.2428,0201,-4.30,-10.13,11.0000,203.0000
1982-05-02 15:30:00 UTC,2445092.145833,28.7317,-95.2428,0201,-3.40,-10.46,11.0000,198.0000
1982-05-02 16:00:00 UTC,2445092.166667,28.7317,-95.2428,0201,-3.22,-10.52,11.0000,197.0000
1982-05-02 16:30:00 UTC,2445092.187500,28.7317,-95.2428,0201,-2.10,-10.80,11.0000,191.0000
1982-05-02 17:00:00 UTC,2445092.208333,28.7317,-95.2428,0201,0.68,-12.98,13.0000,177.0000
1982-05-02 17:30:00 UTC,2445092.229167,28.7317,-95.2428,0201,3.88,-14.49,15.0000,165.0000
1982-05-02 18:00:00 UTC,2445092.250000,28.7317,-95.2428,0201,1.67,-15.91,16.0000,174.0000
1982-05-02 18:30:00 UTC,2445092.270833,28.7317,-95.2428,0201,-4.84,-19.41,20.0000,194.0000
1982-05-02 19:00:00 UTC,2445092.291667,28.7317,-95.2428,0201,-9.35,-21.01,23.0000,204.0000
1982-05-02 19:30:00 UTC,2445092.312500,28.7317,-95.2428,0201,-10.90,-21.38,24.0000,207.0000
1982-05-02 20:00:00 UTC,2445092.333333,28.7317,-95.2428,0201,-13.25,-21.20,25.0000,212.0000
1982-05-02 20:30:00 UTC,2445092.354167,28.7317,-95.2428,0201,-15.10,-18.65,24.0000,219.0000
1982-05-02 21:00:00 UTC,2445092.375000,28.7317,-95.2428,0201,-15.28,-15.83,22.0000,224.0000
1982-05-02 21:30:00 UTC,2445092.395833,28.7317,-95.2428,0201,-14.59,-15.11,21.0000,224.0000
1982-05-02 22:00:00 UTC,2445092.416667,28.7317,-95.2428,0201,-13.20,-13.67,19.0000,224.0000
1982-05-02 22:30:00 UTC,2445092.437500,28.7317,-95.2428,0201,-11.38,-12.63,17.0000,222.0000
1982-05-02 23:00:00 UTC,2445092.458333,28.7317,-95.2428,0201,-9.44,-11.66,15.0000,219.0000
1982-05-02 23:30:00 UTC,2445092.479167,28.7317,-95.2428,0201,-8.18,-10.10,13.0000,219.0000
1982-05-03 00:00:00 UTC,2445092.500000,28.7317,-95.2428,0201,-7.55,-9.33,12.0000,219.0000
1982-05-03 00:30:00 UTC,2445092.520833,28.7317,-95.2428,0201,-6.77,-8.67,11.0000,218.0000
1982-05-03 01:00:00 UTC,2445092.541667,28.7317,-95.2428,0201,-7.22,-8.30,11.0000,221.0000
1982-05-03 01:30:00 UTC,2445092.562500,28.7317,-95.2428,0201,-7.19,-6.95,10.0000,226.0000
1982-05-03 02:00:00 UTC,2445092.583333,28.7317,-95.2428,0201,-6.39,-4.81,8.0000,233.0000
1982-05-03 02:30:00 UTC,2445092.604167,28.7317,-95.2428,0201,-5.30,-2.82,6.0000,242.0000
1982-05-03 03:00:00 UTC,2445092.625000,28.7317,-95.2428,0201,-4.33,-2.50,5.0000,240.0000
1982-05-03 03:30:00 UTC,2445092.645833,28.7317,-95.2428,0201,-3.15,-2.46,4.0000,232.0000
1982-05-03 04:00:00 UTC,2445092.666667,28.7317,-95.2428,0201,-3.19,-2.41,4.0000,233.0000
1982-05-03 04:30:00 UTC,2445092.687500,28.7317,-95.2428,0201,-3.35,-2.18,4.0000,237.0000
1982-05-03 05:00:00 UTC,2445092.708333,28.7317,-95.2428,0201,-3.60,-1.75,4.0000,244.0000
1982-05-03 05:30:00 UTC,2445092.729167,28.7317,-95.2428,0201,-3.80,-1.24,4.0000,252.0000